Content
SEND FEEDBACK

Daily
Averages
Monthly
Summary
United States of America

PASADENA, TEXAS


Home > North America > United States > Texas
Elevation: 39 feet     Latitude: 29 37N     Longitude: 095 10W

WEATHER
 
SELECT A DAY
Number of Records: 79,587;   Date Range: 1/1/03 - 8/30/14
 
SHARE

PRINT THIS DATA

[ ← Previous Day ]
WEATHER ALMANAC - JANUARY 31, 2013
[ Next Day → ]
[ °C ]   °F
Weather ElementAverageHighLow
Temperature52.5 °F69.8 °F (3:50 pm)39.2 °F (6:50 am)
Dewpoint26.6 °F32 °F (8:50 am) (7:00 pm)
Humidity41.6 %57 % (7:50 am)18 % (3:50 pm)
Barometer30.28 in30.33 in (11:50 am)30.23 in (3:50 am)
Wind Speed5.6 mph15 mph (4:50 pm)
Weather ElementAverage
Visibility10 mi
Wind DirectionSSE (148.2 °)

Weather ElementTotal
Precipitation---
Heating Degree Days10.5 (Base 65)
Growing Degree Days4.5 (Base 50)
Averaged from 22 records on January 31, 2013
WEATHER CONDITIONS BREAKOUT
WIND DIRECTION BREAKOUT
WEATHER BY HOUR - JANUARY 31, 2013
[ °C ]   °F
Local TimeTemperatureDewpointHumidityBarometerVisibilityWind DirectionWind SpeedGust SpeedPrecipitationEventsConditions
1:50 AM44.6 °F26.6 °F49 %30.24 in10.0 miSE (140°)3.5 mphPartly Cloudy
2:50 AM41.0 °F24.8 °F53 %30.24 in10.0 miSouth (190°)3.5 mphClear
3:50 AM41.0 °F24.8 °F53 %30.23 in10.0 miSouth (170°)3.5 mphClear
4:50 AM41.0 °F24.8 °F53 %30.23 in10.0 miSouth (170°)3.5 mphClear
5:50 AM41.0 °F24.8 °F53 %30.24 in10.0 miCalmPartly Cloudy
6:50 AM39.2 °F24.8 °F56 %30.26 in10.0 miCalmPartly Cloudy
7:50 AM41.0 °F26.6 °F57 %30.29 in10.0 miVariable2.3 mphPartly Cloudy
8:50 AM46.4 °F32.0 °F57 %30.32 in10.0 miVariable2.3 mphPartly Cloudy
9:50 AM53.6 °F32.0 °F44 %30.32 in10.0 miSouth (190°)6.9 mphPartly Cloudy
10:50 AM57.2 °F26.6 °F31 %30.32 in10.0 miSSW (200°)5.8 mphPartly Cloudy
11:50 AM60.8 °F28.4 °F29 %30.33 in10.0 miSW (220°)5.8 mphScattered Clouds
12:50 PM62.6 °F28.4 °F27 %30.30 in10.0 miSW (220°)9.2 mphScattered Clouds
2:50 PM68.0 °F30.2 °F24 %30.25 in10.0 miSouth (170°)8.1 mphMostly Cloudy
3:50 PM69.8 °F24.8 °F18 %30.24 in10.0 miSSW (200°)11.5 mphMostly Cloudy
4:50 PM68.0 °F24.8 °F20 %30.24 in10.0 miSouth (180°)15.0 mphMostly Cloudy
5:50 PM60.8 °F0.0 °F30.25 in10.0 miSouth (170°)9.2 mphMostly Cloudy
6:50 PM57.2 °F30.2 °F36 %30.25 in10.0 miSouth (170°)9.2 mphMostly Cloudy
7:50 PM55.4 °F30.2 °F38 %30.28 in10.0 miSouth (180°)5.8 mphScattered Clouds
8:50 PM53.6 °F30.2 °F41 %30.32 in10.0 miSouth (170°)5.8 mphScattered Clouds
9:50 PM51.8 °F30.2 °F44 %30.32 in10.0 miSouth (170°)4.6 mphScattered Clouds
10:50 PM51.8 °F30.2 °F44 %30.32 in10.0 miSouth (170°)3.5 mphScattered Clouds
11:50 PM50.0 °F30.2 °F47 %30.32 in10.0 miSouth (180°)3.5 mphScattered Clouds
Hourly data recorded from KEFD, located miles away from Pasadena, Texas







STORIES FROM OUR PARTNERS